Printer-friendly version

IAU Minor Planet Center

Minor Planet Center

MPEC 2006-V61 : 2006 VQ13

The following Minor Planet Electronic Circular may be linked-to from your own Web pages, but must not otherwise be redistributed electronically.


Read MPEC 2006-V60 Read MPEC 2006-V62


M.P.E.C. 2006-V61                                Issued 2006 Nov. 15, 12:51 UT

     The Minor Planet Electronic Circulars contain information on unusual
         minor planets and routine data on comets.  They are published
   on behalf of Commission 20 of the International Astronomical Union by the
          Minor Planet Center, Smithsonian Astrophysical Observatory,
                          Cambridge, MA 02138, U.S.A.

             Prepared using the Tamkin Foundation Computer Network

                              MPC@CFA.HARVARD.EDU
          URL http://cfa-www.harvard.edu/iau/mpc.html  ISSN 1523-6714

                                   2006 VQ13

Observations:
     K06V13Q* C2006 11 14.36807 07 51 01.97 +15 04 08.0          16.2   EV061704
     K06V13Q  C2006 11 14.37979 07 50 41.07 +15 02 15.5          16.8   EV061704
     K06V13Q  C2006 11 14.39184 07 50 19.76 +15 00 17.6          17.1   EV061704
     K06V13Q  C2006 11 14.40358 07 49 58.62 +14 58 26.9          16.8   EV061704
     K06V13Q  C2006 11 14.41548 07 49 37.37 +14 56 32.2          17.0   EV061704
     K06V13Q  C2006 11 15.32554 07 24 20.37 +12 28 35.7          15.8 V EV061G96
     K06V13Q  C2006 11 15.32604 07 24 19.58 +12 28 30.9          15.8 V EV061G96
     K06V13Q  C2006 11 15.32657 07 24 18.72 +12 28 25.8          15.9 V EV061G96
     K06V13Q  C2006 11 15.32708 07 24 17.89 +12 28 21.0          15.8 V EV061G96
     K06V13Q  C2006 11 15.38585 07 22 42.02 +12 18 57.4          16.0 R EV061854
     K06V13Q  C2006 11 15.38659 07 22 40.82 +12 18 50.5          16.0 R EV061854
     K06V13Q  C2006 11 15.38733 07 22 39.61 +12 18 43.2          15.9 R EV061854
     K06V13Q 2C2006 11 15.40657 07 22 07.67 +12 15 37.0          16.0 R EV061H06
     K06V13Q 2C2006 11 15.40982 07 22 02.33 +12 15 06.5          16.5 R EV061H06
     K06V13Q 2C2006 11 15.41318 07 21 56.91 +12 14 35.0          17.1 R EV061H06

Observer details:
704 Lincoln Laboratory ETS, New Mexico.  Observers M. Bezpalko, D. Torres,
    R. Kracke, G. Spitz, J. Kistler.  Measurers J. Stuart, S. Scruggs.  1.0-m
    f/2.15 reflector + CCD.
854 Sabino Canyon Observatory, Tucson.  Observer J. E. McGaha.  0.36-m f/10.0
    Schmidt-Cassegrain + CCD.
G96 Mt. Lemmon Survey.  Observer R. A. Kowalski.  Measurers E. C. Beshore,
    E. J. Christensen, G. J. Garradd, A. R. Gibbs, A. D. Grauer, R. E. Hill,
    R. A. Kowalski, S. M. Larson, R. H. McNaught.  1.5-m reflector + CCD.
H06 RAS Observatory, Mayhill.  Observer R. Hutsebaut.  0.25-m reflector + CCD.

Orbital elements:
2006 VQ13                                           PHA, Earth MOID = 0.0090 AU
Epoch 2006 Sept. 22.0 TT = JDT 2454000.5                MPC
M   8.88421              (2000.0)            P               Q
n   0.84129412     Peri.   73.92612     +0.57851428     +0.78021123
a   1.1113158      Node   233.87619     -0.81444890     +0.53656640
e   0.4560453      Incl.   17.12824     -0.04465658     +0.32150729
P   1.17           H   20.0           G   0.15           U   9
Residuals in seconds of arc
061114 704  0.7-  0.2+    061115 G96  0.1-  0.2-    061115 854  0.7-  0.1+
061114 704  0.6-  0.3+    061115 G96  0.3+  0.2-    061115 854  0.7-  0.1-
061114 704  2.3+  1.8-    061115 G96  0.3+  0.2-    061115 H06  0.5+  0.6-
061114 704  0.4-  0.6+    061115 G96  0.3+  0.2-    061115 H06  0.1-  0.2+
061114 704  0.6-  0.7+    061115 854  0.7-  0.1-    061115 H06  0.8+  1.1+

Ephemeris:
2006 VQ13                a,e,i = 1.11, 0.46, 17                  q = 0.6045
Date    TT    R. A. (2000) Decl.     Delta      r     Elong.  Phase     V
2006 11 11    09 36.38   +22 44.0    0.0662   0.992    89.4    86.8    17.1
2006 11 21    05 35.74   +00 26.9    0.0975   1.071   146.6    30.5    16.4
2006 12 01    04 22.27   -07 03.4    0.178    1.145   151.2    24.5    17.7
2006 12 11    03 56.39   -08 28.1    0.272    1.215   143.7    28.7    18.9
2006 12 21    03 46.64   -07 59.8    0.375    1.278   135.6    32.6    19.8
2006 12 31    03 45.07   -06 44.3    0.484    1.337   128.0    35.4    20.5
2007 01 10    03 48.58   -05 08.2    0.599    1.389   120.9    37.4    21.1
2007 01 20    03 55.61   -03 23.4    0.718    1.436   114.1    38.7    21.6
2007 01 30    04 05.32   -01 37.0    0.841    1.478   107.8    39.4    22.0

Timothy B. Spahr             (C) Copyright 2006 MPC           M.P.E.C. 2006-V61

Read MPEC 2006-V60 Read MPEC 2006-V62


Our Web policy. Index to the CBAT/MPC/ICQ pages.


Valid HTML 4.01!